Вернуться в каталог

FENGYUN 1C DEB

АктивенPO
NORAD 37461·DEBRIS·🇨🇳 China

Запущен May 10, 1999 с Taiyuan Satellite Launch Center

Loading…

Ближайшие Пролёты (ближайшие 24 часа)

TLE

СвежийSource: Space-Track

Эпоха: Sep 11, 2026, 09:02 UTC

1 37461U 99025EJF 26254.37681381  .00001228  00000-0  22035-2 0  9999
2 37461  99.8627 115.2257 0660697  88.2607 279.3993 12.79809033555214

Отслеживайте FENGYUN 1C DEB в реальном времени с AllMySat

Download on the App Store